Simultaneous Nadir Overpasses (SNOs) Predictions

Prediction of SNOs between AQUA and NPP Satellite Orbit:

Table of predicted SNOs for the next 14.0 days since TLE Epoch: 3/16/2024
Index Date (AQUA) Time (AQUA) Lat,Lon (AQUA) SZA (AQUA ) Date (NPP) Time (NPP) Lat,Lon (NPP) SZA (NPP ) Distance(km) Time Diff (sec)
1 03/17/2024 04:25:50 -81.18,-145.83 90.17 03/17/2024 04:25:17 -81.18,-145.70 90.17 2.14 33
2 03/17/2024 05:15:11 81.20, 22.27 89.76 03/17/2024 05:16:00 81.20, 22.39 89.71 1.93 49
3 03/19/2024 17:19:51 -81.19, 20.85 91.22 03/19/2024 17:19:14 -81.18, 20.85 91.19 0.54 37
4 03/19/2024 18:09:13 81.19,-171.46 88.77 03/19/2024 18:09:58 81.19,-171.47 88.74 0.47 45
5 03/22/2024 06:13:53 -81.17,-172.87 92.21 03/22/2024 06:13:13 -81.17,-173.04 92.15 3.04 40
6 03/22/2024 07:03:14 81.19, -4.84 87.73 03/22/2024 07:03:56 81.19, -5.01 87.73 2.79 42
7 03/24/2024 19:07:53 -81.18, -6.24 93.24 03/24/2024 19:07:10 -81.18, -6.24 93.21 0.21 43
8 03/24/2024 19:57:14 81.19, 161.75 86.70 03/24/2024 19:57:53 81.20, 161.78 86.68 0.53 39
9 03/27/2024 08:01:52 -81.18, 160.36 94.27 03/27/2024 08:01:07 -81.18, 160.51 94.26 2.55 45
10 03/27/2024 08:51:13 81.20, -31.67 85.68 03/27/2024 08:51:50 81.20, -31.50 85.63 3.06 37
11 03/29/2024 20:55:50 -81.18, -33.06 95.28 03/29/2024 20:55:05 -81.18, -33.19 95.24 2.17 45



Historial Predications of SNOs between AQUA and NPP
